Time,TemperatureF,DewpointF,PressureIn,WindDirection,WindDirectionDegrees,WindSpeedMPH,WindSpeedGustMPH,Humidity,HourlyPrecipIn,Conditions,Clouds,dailyrainin,SoftwareType,DateUTC
2013-05-16 00:10:00,64.9,56.0,29.92,South,176,0.0,1.0,72,0.00,,,0.00,weatherlink.com 1.10,2013-05-16 05:10:00,
2013-05-16 00:25:00,66.3,56.0,29.92,WSW,240,0.0,2.0,69,0.00,,,0.00,weatherlink.com 1.10,2013-05-16 05:25:00,
2013-05-16 00:40:00,66.9,55.0,29.91,SSE,166,0.0,3.0,66,0.00,,,0.00,weatherlink.com 1.10,2013-05-16 05:40:00,
2013-05-16 00:55:00,67.2,56.0,29.91,West,262,6.0,6.0,67,0.00,,,0.00,weatherlink.com 1.10,2013-05-16 05:55:00,
2013-05-16 01:10:00,67.4,56.0,29.91,SW,225,0.0,3.0,66,0.00,,,0.00,weatherlink.com 1.10,2013-05-16 06:10:00,
2013-05-16 01:25:00,67.5,56.0,29.91,SW,215,0.0,4.0,67,0.00,,,0.00,weatherlink.com 1.10,2013-05-16 06:25:00,
2013-05-16 01:40:00,67.4,58.0,29.91,SW,220,0.0,1.0,71,0.00,,,0.00,weatherlink.com 1.10,2013-05-16 06:40:00,
2013-05-16 01:55:00,66.9,57.0,29.91,SW,220,0.0,1.0,71,0.00,,,0.00,weatherlink.com 1.10,2013-05-16 06:55:00,
2013-05-16 02:10:00,66.3,57.0,29.91,SW,220,0.0,1.0,73,0.00,,,0.00,weatherlink.com 1.10,2013-05-16 07:10:00,
2013-05-16 02:25:00,65.8,57.0,29.91,South,176,1.0,2.0,72,0.00,,,0.00,weatherlink.com 1.10,2013-05-16 07:25:00,
2013-05-16 02:40:00,66.3,57.0,29.91,South,181,1.0,1.0,72,0.00,,,0.00,weatherlink.com 1.10,2013-05-16 07:40:00,
2013-05-16 02:55:00,66.7,57.0,29.91,South,188,0.0,3.0,72,0.00,,,0.00,weatherlink.com 1.10,2013-05-16 07:55:00,
2013-05-16 03:10:00,67.4,58.0,29.91,South,176,0.0,2.0,71,0.00,,,0.00,weatherlink.com 1.10,2013-05-16 08:10:00,
2013-05-16 03:25:00,67.9,58.0,29.91,SE,134,0.0,3.0,70,0.00,,,0.00,weatherlink.com 1.10,2013-05-16 08:25:00,
2013-05-16 03:41:00,68.3,58.0,29.91,South,181,0.0,2.0,70,0.00,,,0.00,weatherlink.com 1.10,2013-05-16 08:41:00,
2013-05-16 03:56:00,68.5,58.0,29.91,SSW,192,0.0,4.0,70,0.00,,,0.00,weatherlink.com 1.10,2013-05-16 08:56:00,
2013-05-16 04:11:00,68.8,58.0,29.91,WSW,244,1.0,7.0,69,0.00,,,0.00,weatherlink.com 1.10,2013-05-16 09:11:00,
2013-05-16 04:26:00,69.2,59.0,29.91,SW,228,1.0,4.0,69,0.00,,,0.00,weatherlink.com 1.10,2013-05-16 09:26:00,
2013-05-16 04:41:00,68.9,59.0,29.92,SW,231,1.0,4.0,70,0.00,,,0.00,weatherlink.com 1.10,2013-05-16 09:41:00,
2013-05-16 04:56:00,68.5,59.0,29.93,WSW,251,0.0,3.0,71,0.00,,,0.00,weatherlink.com 1.10,2013-05-16 09:56:00,
2013-05-16 05:11:00,67.6,60.0,29.92,WSW,251,1.0,1.0,76,0.00,,,0.00,weatherlink.com 1.10,2013-05-16 10:11:00,
2013-05-16 05:26:00,67.0,59.0,29.94,SSW,213,0.0,3.0,75,0.00,,,0.00,weatherlink.com 1.10,2013-05-16 10:26:00,
2013-05-16 05:41:00,67.5,59.0,29.94,SW,234,1.0,1.0,74,0.00,,,0.00,weatherlink.com 1.10,2013-05-16 10:41:00,
2013-05-16 05:56:00,67.3,59.0,29.95,SW,220,0.0,2.0,74,0.00,,,0.00,weatherlink.com 1.10,2013-05-16 10:56:00,
2013-05-16 06:11:00,67.1,59.0,29.95,SW,228,1.0,2.0,76,0.00,,,0.00,weatherlink.com 1.10,2013-05-16 11:11:00,
2013-05-16 06:26:00,66.5,59.0,29.96,SW,214,0.0,2.0,78,0.00,,,0.00,weatherlink.com 1.10,2013-05-16 11:26:00,
2013-05-16 06:41:00,66.1,59.0,29.96,SW,214,0.0,1.0,79,0.00,,,0.00,weatherlink.com 1.10,2013-05-16 11:41:00,
2013-05-16 06:56:00,66.3,60.0,29.98,SSW,194,0.0,3.0,79,0.00,,,0.00,weatherlink.com 1.10,2013-05-16 11:56:00,
2013-05-16 07:11:00,66.8,59.0,29.97,SSW,205,1.0,4.0,77,0.00,,,0.00,weatherlink.com 1.10,2013-05-16 12:11:00,
2013-05-16 07:26:00,67.4,60.0,29.97,WSW,239,0.0,4.0,77,0.00,,,0.00,weatherlink.com 1.10,2013-05-16 12:26:00,
2013-05-16 07:41:00,67.6,60.0,29.97,SW,233,0.0,3.0,77,0.00,,,0.00,weatherlink.com 1.10,2013-05-16 12:41:00,
2013-05-16 07:56:00,68.0,61.0,29.97,SW,232,0.0,2.0,77,0.00,,,0.00,weatherlink.com 1.10,2013-05-16 12:56:00,
2013-05-16 08:11:00,68.8,62.0,29.98,SW,232,0.0,1.0,79,0.00,,,0.00,weatherlink.com 1.10,2013-05-16 13:11:00,
2013-05-16 08:26:00,71.5,62.0,29.97,SW,224,4.0,4.0,73,0.00,,,0.00,weatherlink.com 1.10,2013-05-16 13:26:00,
2013-05-16 08:41:00,73.0,63.0,29.97,SW,224,2.0,5.0,70,0.00,,,0.00,weatherlink.com 1.10,2013-05-16 13:41:00,
2013-05-16 08:56:00,73.1,63.0,29.97,SW,225,1.0,7.0,71,0.00,,,0.00,weatherlink.com 1.10,2013-05-16 13:56:00,
2013-05-16 09:11:00,73.5,62.0,29.98,SW,219,5.0,11.0,68,0.00,,,0.00,weatherlink.com 1.10,2013-05-16 14:11:00,
2013-05-16 09:26:00,73.8,63.0,29.98,SSW,207,3.0,11.0,68,0.00,,,0.00,weatherlink.com 1.10,2013-05-16 14:26:00,
2013-05-16 09:41:00,74.5,62.0,29.97,South,176,3.0,7.0,66,0.00,,,0.00,weatherlink.com 1.10,2013-05-16 14:41:00,
2013-05-16 09:56:00,74.2,63.0,29.97,SW,226,4.0,13.0,68,0.00,,,0.00,weatherlink.com 1.10,2013-05-16 14:56:00,
2013-05-16 10:11:00,74.8,61.0,29.97,South,190,3.0,6.0,62,0.00,,,0.00,weatherlink.com 1.10,2013-05-16 15:11:00,
2013-05-16 10:26:00,75.7,62.0,29.98,SSE,159,3.0,7.0,62,0.00,,,0.00,weatherlink.com 1.10,2013-05-16 15:26:00,
2013-05-16 10:41:00,75.7,61.0,29.98,SSW,211,2.0,6.0,61,0.00,,,0.00,weatherlink.com 1.10,2013-05-16 15:41:00,
2013-05-16 10:56:00,75.3,61.0,29.97,SW,220,3.0,8.0,62,0.00,,,0.00,weatherlink.com 1.10,2013-05-16 15:56:00,
2013-05-16 11:11:00,75.5,62.0,29.97,SW,223,6.0,9.0,63,0.00,,,0.00,weatherlink.com 1.10,2013-05-16 16:11:00,
2013-05-16 11:26:00,76.3,61.0,29.97,SW,232,5.0,9.0,59,0.00,,,0.00,weatherlink.com 1.10,2013-05-16 16:26:00,
2013-05-16 11:41:00,75.9,61.0,29.97,SW,217,3.0,9.0,61,0.00,,,0.00,weatherlink.com 1.10,2013-05-16 16:41:00,
2013-05-16 11:56:00,76.0,61.0,29.96,South,171,2.0,9.0,59,0.00,,,0.00,weatherlink.com 1.10,2013-05-16 16:56:00,
2013-05-16 12:11:00,76.1,61.0,29.96,SSE,150,1.0,6.0,59,0.00,,,0.00,weatherlink.com 1.10,2013-05-16 17:11:00,
2013-05-16 12:26:00,75.5,60.0,29.96,SW,228,2.0,3.0,59,0.00,,,0.00,weatherlink.com 1.10,2013-05-16 17:26:00,
2013-05-16 12:41:00,75.8,60.0,29.96,South,171,3.0,4.0,59,0.00,,,0.00,weatherlink.com 1.10,2013-05-16 17:41:00,
2013-05-16 12:56:00,77.1,61.0,29.95,SSE,155,6.0,8.0,57,0.00,,,0.00,weatherlink.com 1.10,2013-05-16 17:56:00,
2013-05-16 13:11:00,78.6,61.0,29.95,SSW,202,0.0,6.0,55,0.00,,,0.00,weatherlink.com 1.10,2013-05-16 18:11:00,
2013-05-16 13:27:00,79.9,63.0,29.95,SSE,166,2.0,6.0,56,0.00,,,0.00,weatherlink.com 1.10,2013-05-16 18:27:00,
2013-05-16 13:42:00,81.1,61.0,29.94,South,184,0.0,6.0,51,0.00,,,0.00,weatherlink.com 1.10,2013-05-16 18:42:00,
2013-05-16 13:57:00,81.7,63.0,29.94,ESE,122,1.0,4.0,54,0.00,,,0.00,weatherlink.com 1.10,2013-05-16 18:57:00,
2013-05-16 14:12:00,81.0,62.0,29.93,SSE,148,2.0,5.0,53,0.00,,,0.00,weatherlink.com 1.10,2013-05-16 19:12:00,
2013-05-16 14:27:00,80.8,64.0,29.93,East,87,0.0,3.0,56,0.00,,,0.00,weatherlink.com 1.10,2013-05-16 19:27:00,
2013-05-16 14:42:00,81.3,64.0,29.92,South,176,8.0,8.0,55,0.00,,,0.00,weatherlink.com 1.10,2013-05-16 19:42:00,
2013-05-16 14:57:00,81.2,62.0,29.92,South,180,2.0,3.0,53,0.00,,,0.00,weatherlink.com 1.10,2013-05-16 19:57:00,
2013-05-16 15:12:00,81.5,64.0,29.92,ENE,70,1.0,5.0,56,0.00,,,0.00,weatherlink.com 1.10,2013-05-16 20:12:00,
2013-05-16 15:27:00,81.1,63.0,29.91,NE,55,2.0,4.0,55,0.00,,,0.00,weatherlink.com 1.10,2013-05-16 20:27:00,
2013-05-16 15:42:00,80.0,66.0,29.91,South,176,0.0,3.0,63,0.00,,,0.00,weatherlink.com 1.10,2013-05-16 20:42:00,
2013-05-16 15:57:00,80.6,65.0,29.91,South,171,3.0,4.0,59,0.00,,,0.00,weatherlink.com 1.10,2013-05-16 20:57:00,
2013-05-16 16:12:00,81.1,65.0,29.91,SE,132,0.0,5.0,58,0.00,,,0.00,weatherlink.com 1.10,2013-05-16 21:12:00,
2013-05-16 16:27:00,81.1,63.0,29.90,SSE,155,0.0,6.0,55,0.00,,,0.00,weatherlink.com 1.10,2013-05-16 21:27:00,
2013-05-16 16:42:00,82.0,66.0,29.90,SSW,212,2.0,6.0,58,0.00,,,0.00,weatherlink.com 1.10,2013-05-16 21:42:00,
2013-05-16 16:57:00,80.7,63.0,29.90,SE,127,0.0,1.0,56,0.00,,,0.00,weatherlink.com 1.10,2013-05-16 21:57:00,
2013-05-16 17:12:00,80.1,66.0,29.90,East,91,0.0,2.0,63,0.00,,,0.00,weatherlink.com 1.10,2013-05-16 22:12:00,
2013-05-16 17:27:00,79.6,64.0,29.90,NW,314,0.0,1.0,60,0.00,,,0.00,weatherlink.com 1.10,2013-05-16 22:27:00,
2013-05-16 17:42:00,78.5,66.0,29.89,NE,55,0.0,1.0,65,0.00,,,0.00,weatherlink.com 1.10,2013-05-16 22:42:00,
2013-05-16 17:57:00,77.0,65.0,29.89,NE,55,1.0,3.0,67,0.00,,,0.00,weatherlink.com 1.10,2013-05-16 22:57:00,
2013-05-16 18:12:00,76.4,66.0,29.89,NE,43,0.0,1.0,69,0.00,,,0.00,weatherlink.com 1.10,2013-05-16 23:12:00,
2013-05-16 18:27:00,76.1,66.0,29.89,NE,43,0.0,0.0,71,0.00,,,0.00,weatherlink.com 1.10,2013-05-16 23:27:00,
2013-05-16 18:42:00,75.5,66.0,29.89,NE,43,0.0,0.0,73,0.00,,,0.00,weatherlink.com 1.10,2013-05-16 23:42:00,
2013-05-16 18:57:00,74.8,67.0,29.89,NE,43,0.0,0.0,76,0.00,,,0.00,weatherlink.com 1.10,2013-05-16 23:57:00,
2013-05-16 19:12:00,74.1,67.0,29.89,NE,43,0.0,0.0,79,0.00,,,0.00,weatherlink.com 1.10,2013-05-17 00:12:00,
2013-05-16 19:27:00,73.5,67.0,29.89,NE,43,0.0,0.0,79,0.00,,,0.00,weatherlink.com 1.10,2013-05-17 00:27:00,
2013-05-16 19:42:00,72.9,61.0,29.90,SSE,166,0.0,4.0,66,0.00,,,0.00,weatherlink.com 1.10,2013-05-17 00:42:00,
2013-05-16 19:57:00,73.4,61.0,29.89,SSE,162,0.0,2.0,65,0.00,,,0.00,weatherlink.com 1.10,2013-05-17 00:57:00,
2013-05-16 20:12:00,72.6,62.0,29.89,SSE,162,0.0,0.0,70,0.00,,,0.00,weatherlink.com 1.10,2013-05-17 01:12:00,
2013-05-16 20:27:00,71.3,62.0,29.89,SSE,162,0.0,0.0,73,0.00,,,0.00,weatherlink.com 1.10,2013-05-17 01:27:00,
2013-05-16 20:42:00,69.9,62.0,29.90,SSE,162,0.0,0.0,75,0.00,,,0.00,weatherlink.com 1.10,2013-05-17 01:42:00,
2013-05-16 20:57:00,68.8,61.0,29.90,SSE,162,0.0,0.0,77,0.00,,,0.00,weatherlink.com 1.10,2013-05-17 01:57:00,
2013-05-16 21:12:00,67.8,61.0,29.91,SSE,162,0.0,0.0,80,0.00,,,0.00,weatherlink.com 1.10,2013-05-17 02:12:00,
2013-05-16 21:27:00,67.0,61.0,29.91,SSE,162,0.0,0.0,82,0.00,,,0.00,weatherlink.com 1.10,2013-05-17 02:27:00,
2013-05-16 21:42:00,66.3,61.0,29.91,SSE,162,0.0,0.0,82,0.00,,,0.00,weatherlink.com 1.10,2013-05-17 02:42:00,
2013-05-16 21:57:00,65.8,61.0,29.92,SSE,162,0.0,0.0,84,0.00,,,0.00,weatherlink.com 1.10,2013-05-17 02:57:00,
2013-05-16 22:12:00,65.0,60.0,29.92,SSE,162,0.0,0.0,85,0.00,,,0.00,weatherlink.com 1.10,2013-05-17 03:12:00,
2013-05-16 22:27:00,64.4,61.0,29.92,SSE,162,0.0,1.0,87,0.00,,,0.00,weatherlink.com 1.10,2013-05-17 03:27:00,
2013-05-16 22:42:00,63.6,60.0,29.93,SSE,162,0.0,1.0,88,0.00,,,0.00,weatherlink.com 1.10,2013-05-17 03:42:00,
2013-05-16 22:57:00,63.2,60.0,29.92,SSE,162,0.0,0.0,89,0.00,,,0.00,weatherlink.com 1.10,2013-05-17 03:57:00,
2013-05-16 23:12:00,62.7,60.0,29.93,SSE,162,0.0,0.0,89,0.00,,,0.00,weatherlink.com 1.10,2013-05-17 04:12:00,
2013-05-16 23:27:00,62.3,59.0,29.93,SSE,162,0.0,0.0,90,0.00,,,0.00,weatherlink.com 1.10,2013-05-17 04:27:00,
2013-05-16 23:42:00,62.1,60.0,29.93,SSE,162,0.0,0.0,91,0.00,,,0.00,weatherlink.com 1.10,2013-05-17 04:42:00,
2013-05-16 23:57:00,62.1,60.0,29.93,SSE,162,0.0,0.0,92,0.00,,,0.00,weatherlink.com 1.10,2013-05-17 04:57:00,